Torna al catalogo

STARLINK-32377

AttivoComunicazioniVLEO
NORAD 61888·PAYLOAD·🇺🇸 United States

Lanciato Nov 9, 2024 da Vandenberg Space Force Base

Loading…

Prossimi Passaggi (prossime 24 ore)

TLE

AggiornatoSource: CelesTrak SupGP

Epoca: Sep 14, 2026, 21:02 UTC

1 61888C 24204Q   26257.87687500 -.00014707  00000+0 -43480-3 0  2575
2 61888  53.1582 323.9963 0001287  80.8520 292.0561 15.34377858    10

Traccia STARLINK-32377 in tempo reale con AllMySat

Download on the App Store